リニア-ニート彗星

231P/LINEAR-NEAT (2003)

English version
Home page
Updated on January 1, 2010

---------------------------------------------------------------------

・ プロフィール

符号 231P/2003 CP7
発見日 2003年2月1日, 3月10日
発見光度 17.7等
発見者 Lincoln Laboratory Near-Earth Asteroid Research project, Near-Earth-Asteroid Tracking Team (Jet Propulsion Laboratory)

・ 写真集

・ 軌道要素

Epoch 2003 May 1.0 TT = JDT 2452760.5
T 2003 Apr. 29.32896 TT                                 MPC
q   3.0168393            (2000.0)            P               Q
n   0.12252009     Peri.   42.61655     -0.98582459     -0.06183798
a   4.0148054      Node   133.12561     +0.02037320     -0.96684231
e   0.2485715      Incl.   12.33906     +0.16653769     -0.24777411
P   8.04

・ 星図

・ 光度変化

        m1 = 4.3 + 5 logΔ + 25 log r

---------------------------------------------------------------------

軌道要素はM.P.E.C. 2009-Y17に掲載されたものです。
星図は StellaNavigator Ver.2.0 for Windows (アストロアーツ 編著 / アスキー出版局刊) で作成したものです。
光度グラフはComet for Windowsで作成したものです。

---------------------------------------------------------------------

Copyright(C) Seiichi Yoshida (comet@aerith.net). All rights reserved.